When you browse on this site, cookies collect data to enhance your experience and personalize the content and advertising you see.
Visit our Privacy Policy to learn more. By continuing to use the site, you agree to this use of cookies and data.
  • In Portugal
  • List of Countries
  • For 7 days
  • Water Temperature
  • Satellite Maps
  • Weather Map
  • Weather Widgets
  • user-avatar
    Login

    Hourly Weather Orehovo

    Today, 18 February, Monday

    Time Temperature Precipitation Wind Pressure Humidity
    00:00 -5°C° 0 mm 2 mps 753 mmHg 53%
    01:00 -5°C° 0 mm 2 mps 754 mmHg 55%
    02:00 -3°C° 0 mm 1 mps 754 mmHg 57%
    03:00 -4°C° 0 mm 1 mps 754 mmHg 58%
    04:00 -4°C° 0 mm 1 mps 755 mmHg 60%
    05:00 -6°C° 0 mm 2 mps 755 mmHg 61%
    06:00 -7°C° 0 mm 2 mps 755 mmHg 63%
    07:00 -6°C° 0 mm 2 mps 756 mmHg 60%
    08:00 -5°C° 0 mm 2 mps 756 mmHg 58%
    09:00 -4°C° 0 mm 2 mps 756 mmHg 54%
    10:00 -3°C° 0 mm 2 mps 756 mmHg 48%
    11:00 -2°C° 0 mm 3 mps 756 mmHg 43%
    12:00 -1°C° 0 mm 4 mps 756 mmHg 38%
    13:00 0°C° 0 mm 4 mps 755 mmHg 35%
    14:00 0°C° 0 mm 4 mps 755 mmHg 33%
    15:00 +1°C° 0 mm 5 mps 755 mmHg 31%
    16:00 0°C° 0 mm 4 mps 755 mmHg 34%
    17:00 -1°C° 0 mm 4 mps 755 mmHg 38%
    18:00 -2°C° 0 mm 4 mps 755 mmHg 41%
    19:00 -2°C° 0 mm 4 mps 755 mmHg 45%
    20:00 -2°C° 0 mm 4 mps 756 mmHg 49%
    21:00 -2°C° 0 mm 4 mps 756 mmHg 53%
    22:00 -3°C° 0 mm 4 mps 756 mmHg 62%
    23:00 -3°C° 0 mm 4 mps 756 mmHg 72%

    Tomorrow, 19 February, Tuesday

    Time Temperature Precipitation Wind Pressure Humidity
    00:00 -2°C° 0 mm 3 mps 756 mmHg 81%
    01:00 -2°C° 0 mm 3 mps 756 mmHg 84%
    02:00 -3°C° 0 mm 2 mps 756 mmHg 87%
    03:00 -3°C° 0 mm 2 mps 755 mmHg 90%
    04:00 -3°C° 0 mm 2 mps 755 mmHg 90%
    05:00 -1°C° 0 mm 1 mps 755 mmHg 90%
    06:00 -1°C° 0 mm 1 mps 755 mmHg 90%
    07:00 -1°C° 0 mm 1 mps 755 mmHg 87%
    08:00 0°C° 0 mm 1 mps 755 mmHg 85%
    09:00 0°C° 0 mm 1 mps 755 mmHg 82%
    10:00 +1°C° 0 mm 1 mps 755 mmHg 75%
    11:00 +2°C° 0 mm 1 mps 755 mmHg 67%
    12:00 +2°C° 0 mm 0 mps 754 mmHg 60%
    13:00 +3°C° 0 mm 1 mps 754 mmHg 56%
    14:00 +3°C° 0 mm 1 mps 753 mmHg 52%
    15:00 +4°C° 0 mm 1 mps 753 mmHg 48%
    16:00 +3°C° 0 mm 1 mps 753 mmHg 50%
    17:00 +2°C° 0 mm 1 mps 753 mmHg 52%
    18:00 -1°C° 0 mm 2 mps 753 mmHg 54%
    19:00 -1°C° 0 mm 2 mps 753 mmHg 52%
    20:00 -1°C° 0 mm 2 mps 753 mmHg 50%
    21:00 -1°C° 0 mm 2 mps 753 mmHg 48%
    22:00 -2°C° 0 mm 2 mps 754 mmHg 46%
    23:00 -2°C° 0 mm 2 mps 754 mmHg 44%

    Day after tomorrow, 20 February, Wednesday

    Time Temperature Precipitation Wind Pressure Humidity
    00:00 -2°C° 0 mm 2 mps 754 mmHg 41%
    01:00 -2°C° 0 mm 2 mps 754 mmHg 43%
    02:00 -3°C° 0 mm 2 mps 754 mmHg 45%
    03:00 -3°C° 0 mm 2 mps 754 mmHg 46%
    04:00 -3°C° 0 mm 2 mps 754 mmHg 48%
    05:00 -4°C° 0 mm 2 mps 754 mmHg 50%
    06:00 -4°C° 0 mm 2 mps 754 mmHg 51%
    07:00 -4°C° 0 mm 2 mps 754 mmHg 51%
    08:00 -4°C° 0 mm 2 mps 755 mmHg 51%
    09:00 -3°C° 0 mm 2 mps 755 mmHg 50%
    10:00 -4°C° 0 mm 3 mps 755 mmHg 49%
    11:00 -2°C° 0 mm 3 mps 755 mmHg 47%
    12:00 -2°C° 0 mm 4 mps 755 mmHg 45%
    13:00 -2°C° 0 mm 4 mps 755 mmHg 43%
    14:00 -1°C° 0 mm 4 mps 755 mmHg 41%
    15:00 -1°C° 0 mm 4 mps 755 mmHg 40%
    16:00 0°C° 0 mm 3 mps 755 mmHg 43%
    17:00 -1°C° 0 mm 2 mps 756 mmHg 46%
    18:00 0°C° 0 mm 1 mps 756 mmHg 49%
    19:00 0°C° 0 mm 1 mps 756 mmHg 49%
    20:00 0°C° 0 mm 1 mps 757 mmHg 48%
    21:00 0°C° 0 mm 1 mps 757 mmHg 48%
    22:00 -1°C° 0 mm 1 mps 757 mmHg 49%
    23:00 -1°C° 0 mm 1 mps 757 mmHg 51%

    21 February, Thursday

    Time Temperature Precipitation Wind Pressure Humidity
    00:00 -1°C° 0 mm 1 mps 758 mmHg 52%
    01:00 -1°C° 0 mm 1 mps 758 mmHg 56%
    02:00 -1°C° 0 mm 1 mps 758 mmHg 60%
    03:00 -2°C° 0 mm 1 mps 757 mmHg 64%
    04:00 -2°C° 0 mm 1 mps 757 mmHg 63%
    05:00 -2°C° 0 mm 1 mps 757 mmHg 63%
    06:00 -2°C° 0 mm 1 mps 757 mmHg 63%
    07:00 -4°C° 0 mm 2 mps 758 mmHg 59%
    08:00 -3°C° 0 mm 2 mps 758 mmHg 56%
    09:00 -3°C° 0 mm 2 mps 758 mmHg 52%
    10:00 -1°C° 0 mm 2 mps 758 mmHg 45%
    11:00 +1°C° 0 mm 2 mps 757 mmHg 38%
    12:00 +1°C° 0 mm 3 mps 757 mmHg 31%
    13:00 +3°C° 0 mm 2 mps 757 mmHg 30%
    14:00 +4°C° 0 mm 2 mps 756 mmHg 28%
    15:00 +4°C° 0 mm 2 mps 756 mmHg 27%
    16:00 +3°C° 0 mm 2 mps 756 mmHg 30%
    17:00 +3°C° 0 mm 1 mps 755 mmHg 34%
    18:00 +2°C° 0 mm 1 mps 755 mmHg 37%
    19:00 +2°C° 0 mm 1 mps 755 mmHg 40%
    20:00 -1°C° 0 mm 2 mps 755 mmHg 42%
    21:00 -1°C° 0 mm 2 mps 755 mmHg 45%
    22:00 -1°C° 0 mm 2 mps 755 mmHg 46%
    23:00 -2°C° 0 mm 2 mps 755 mmHg 47%

    22 February, Friday

    Time Temperature Precipitation Wind Pressure Humidity
    00:00 -2°C° 0 mm 2 mps 755 mmHg 49%
    01:00 -2°C° 0 mm 2 mps 755 mmHg 48%
    02:00 -2°C° 0 mm 2 mps 755 mmHg 47%
    03:00 -2°C° 0 mm 3 mps 754 mmHg 47%
    04:00 -2°C° 0 mm 3 mps 754 mmHg 46%
    05:00 -2°C° 0 mm 3 mps 754 mmHg 45%
    06:00 -4°C° 0 mm 3 mps 754 mmHg 44%
    07:00 -2°C° 0 mm 3 mps 755 mmHg 41%
    08:00 -2°C° 0 mm 4 mps 755 mmHg 39%
    09:00 -2°C° 0 mm 4 mps 755 mmHg 36%
    10:00 -1°C° 0 mm 5 mps 755 mmHg 36%
    11:00 0°C° 0 mm 5 mps 756 mmHg 35%
    12:00 +1°C° 0 mm 5 mps 756 mmHg 34%
    13:00 +1°C° 0 mm 5 mps 755 mmHg 33%
    14:00 +1°C° 0 mm 5 mps 755 mmHg 33%
    15:00 +1°C° 0 mm 5 mps 755 mmHg 33%
    16:00 0°C° 0 mm 5 mps 755 mmHg 37%
    17:00 -1°C° 0 mm 4 mps 755 mmHg 40%
    18:00 -1°C° 0 mm 3 mps 756 mmHg 44%
    19:00 -1°C° 0 mm 3 mps 756 mmHg 43%
    20:00 -2°C° 0 mm 3 mps 757 mmHg 42%
    21:00 -2°C° 0 mm 3 mps 757 mmHg 41%
    22:00 -2°C° 0 mm 3 mps 757 mmHg 42%
    23:00 -4°C° 0 mm 3 mps 758 mmHg 44%

    23 February, Saturday

    Time Temperature Precipitation Wind Pressure Humidity
    00:00 -4°C° 0 mm 3 mps 758 mmHg 45%
    01:00 -5°C° 0 mm 4 mps 758 mmHg 47%
    02:00 -5°C° 0 mm 4 mps 758 mmHg 48%
    03:00 -6°C° 0 mm 5 mps 758 mmHg 50%
    04:00 -7°C° 0 mm 4 mps 758 mmHg 52%
    05:00 -7°C° 0 mm 4 mps 758 mmHg 55%
    06:00 -8°C° 0 mm 4 mps 759 mmHg 57%
    07:00 -7°C° 0 mm 4 mps 759 mmHg 57%
    08:00 -6°C° 0 mm 3 mps 759 mmHg 57%
    09:00 -6°C° 0 mm 3 mps 759 mmHg 57%
    10:00 -5°C° 0 mm 3 mps 759 mmHg 53%
    11:00 -4°C° 0 mm 3 mps 759 mmHg 48%
    12:00 -2°C° 0 mm 3 mps 758 mmHg 44%
    13:00 -2°C° 0 mm 2 mps 758 mmHg 41%
    14:00 -1°C° 0 mm 2 mps 757 mmHg 38%
    15:00 -1°C° 0 mm 2 mps 757 mmHg 35%
    16:00 -1°C° 0 mm 2 mps 757 mmHg 37%
    17:00 0°C° 0 mm 1 mps 756 mmHg 39%
    18:00 -1°C° 0 mm 1 mps 756 mmHg 41%
    19:00 -1°C° 0 mm 1 mps 756 mmHg 41%
    20:00 -1°C° 0 mm 1 mps 756 mmHg 41%
    21:00 -1°C° 0 mm 1 mps 756 mmHg 41%
    22:00 -3°C° 0 mm 2 mps 756 mmHg 39%
    23:00 -3°C° 0 mm 2 mps 756 mmHg 38%
    Show more